Location: Althorst
(53.6379°N, 10.7715°E)
Time: 07:51:21
(UTC+00:00)

Cosmos 1782 Rocket - Pass Details

Date: 10 December 2019
Orbit: 606 x 633 km, 82.5° (Epoch: 21 January)

Event Time Altitude Azimuth Distance (km) Brightness Sun altitude
Rises 16:36:28 0° 353° (N) 2,896 6.9 -13.6°
Reaches altitude 10° 16:38:50 10° 1° (N) 1,982 5.9 -13.9°
Maximum altitude 16:42:57 38° 71° (ENE) 933 4.0 -14.5°
Drops below altitude 10° 16:47:01 10° 140° (SE) 1,959 5.9 -15.1°
Sets 16:49:20 0° 149° (SSE) 2,857 6.8 -15.4°
